[[{"header":{"parameterUnit":"m.s-1","parameterCategory":1,"la1":30.2991,"la2":30.254,"lo1":-89.0895,"lo2":-89.0444,"dy":0.0017,"dx":0.0017,"nx":28,"ny":28,"refTime":"2025-09-04T21:00:00:Z","depth":0,"parameterNumber":2,"parameterNumberName":"U-component_of_WINDS"},"data":[0,0,0,0,0,0,0,0,0,0,0,0,0,0,0,0,0,0,0,0,0,0,0,0,0,0,0,0,0,0,0,0,0,0,0,0,0,0,0,0,0,0,0,0,0,0,0,0,0,0,0,0,0,0,0,0,0,0,2.2376,2.2376,0,2.236,2.2359,2.2359,2.2295,2.2293,2.2292,2.2291,2.2272,2.2273,2.2274,0,0,0,0,0,0,0,0,0,0,0,0,0,2.2349,2.235,2.2376,2.2376,2.2376,2.236,2.2359,2.2359,2.2295,2.2293,2.2292,2.229,2.2272,2.2273,2.2274,0,0,0,0,0,0,0,0,0,0,0,0,0,2.235,2.235,2.2376,2.2342,2.2339,2.236,2.2359,2.2359,2.2295,2.2293,2.2291,2.2289,2.2272,2.2273,2.2274,2.2326,0,0,2.2278,2.2279,0,0,0,0,0,0,0,0,2.235,2.2351,2.2347,2.2344,2.2341,2.2327,2.2343,2.2348,2.2296,2.2312,2.229,2.2288,2.2292,2.2292,2.2293,2.2326,2.2325,2.2278,2.2279,2.228,2.228,0,0,0,0,0,0,0,2.235,2.2351,2.237,2.2347,2.2343,2.2326,2.2324,2.2344,2.2315,2.231,2.2306,2.2305,2.229,2.2292,2.2292,2.2325,2.2278,2.2279,2.228,2.2281,2.2394,2.2396,0,0,0,0,0,0,2.2355,2.2351,2.237,2.2369,2.234,2.2329,2.2326,2.2334,2.2314,2.2309,2.2307,2.2302,2.2291,2.2291,2.2292,2.2348,2.228,2.2281,2.2282,2.2392,2.2394,2.2397,0,0,0,0,0,0,2.2355,2.2357,2.2371,2.2359,2.2359,2.2331,2.2341,2.2335,2.2337,2.2311,2.2305,2.2314,2.2289,2.229,2.2317,2.2346,2.2281,2.2283,2.2389,2.2392,2.2395,2.2463,0,0,0,0,0,0,2.2354,2.2358,2.2378,2.236,2.236,2.2398,2.2343,2.2336,2.2339,2.2333,2.2317,2.2312,2.2288,2.2316,2.2318,2.2347,2.2284,2.2386,2.239,2.2394,2.2458,2.2468,2.2477,0,0,0,0,0,2.2353,2.2399,2.238,2.2382,2.2386,2.24,2.24,2.2371,2.2342,2.2361,2.2344,2.2313,2.2343,2.2319,2.2322,2.2351,2.2384,2.2389,2.2394,2.2454,2.2466,2.2477,0,0,0,0,0,0,2.2422,2.2396,2.2374,2.2415,2.241,2.2389,2.2413,2.2386,2.2389,2.2383,2.2346,2.2343,2.2375,2.2366,2.2339,2.2398,2.2358,2.2364,2.2402,2.2414,2.2423,2.2424,2.2285,0,0,0,0,0,2.2441,2.2456,2.2433,2.2471,2.2469,2.2442,2.2447,2.2425,2.2418,2.2415,2.2401,2.2395,2.2402,2.2408,2.2414,2.2457,2.245,2.2478,2.2488,2.2496,2.25,2.2518,2.2528,2.2413,2.2413,2.2413,0,0,2.2483,2.247,2.2482,2.2484,2.2478,2.2491,2.244,2.2459,2.2468,2.2418,2.2442,2.2431,2.2422,2.2456,2.247,2.245,2.2531,2.2502,2.2508,2.2509,2.2524,2.2535,2.2545,2.2416,2.2416,2.2415,0,0,2.2564,2.2558,2.2586,2.258,2.2571,2.2552,2.2559,2.2541,2.2531,2.2555,2.2517,2.2527,2.2542,2.2536,2.2534,2.261,2.2579,2.2613,2.2662,2.2679,2.2688,2.2696,2.2719,2.2728,2.2618,2.2618,2.2619,0,2.2615,2.2636,2.2605,2.2624,2.2625,2.258,2.2607,2.2603,2.2596,2.2597,2.2574,2.2589,2.258,2.261,2.2628,2.263,2.2634,2.2614,2.269,2.2697,2.2704,2.2725,2.2735,2.2622,2.2622,2.2621,2.2621,0,2.2698,2.2713,2.2737,2.273,2.2734,2.2758,2.2728,2.2735,2.2712,2.2695,2.2718,2.2705,2.2705,2.2712,2.269,2.2737,2.2724,2.2697,2.2655,2.2719,2.2739,2.2747,2.2628,2.2626,2.2625,2.2624,0,0,2.2822,2.2795,2.2805,2.2799,2.2784,2.2794,2.2814,2.2814,2.2819,2.2816,2.283,2.2842,2.2815,2.2814,2.2791,2.2807,2.2862,2.2776,2.2775,2.2789,2.2909,2.2928,2.2938,2.2843,2.2844,2.2846,2.2908,0,2.2896,2.2929,2.29,2.2938,2.2949,2.2905,2.2922,2.2914,2.2898,2.2904,2.2886,2.2894,2.2859,2.2857,2.2872,2.2853,2.2885,2.2848,2.2853,2.2853,2.2853,2.2949,2.2969,2.3029,2.2916,2.2917,2.2918,0,2.2987,2.2986,2.3024,2.3003,2.3006,2.3023,2.3018,2.3025,2.3014,2.3001,2.2998,2.2969,2.2985,2.2947,2.2966,2.2941,2.2942,2.2932,2.2934,2.2931,2.2888,2.2945,2.3048,2.3056,2.2931,2.293,2.2929,0,2.3068,2.3077,2.31,2.3097,2.3074,2.3085,2.3076,2.3062,2.3063,2.3059,2.3059,2.3058,2.3056,2.3055,2.3026,2.3001,2.3048,2.3007,2.3035,2.3035,2.3044,2.3044,2.3146,2.305,2.305,2.305,2.305,0,2.3152,2.3177,2.3135,2.3149,2.3174,2.314,2.3165,2.3152,2.3139,2.3148,2.3111,2.312,2.3083,2.3087,2.3065,2.3082,2.3083,2.307,2.3063,2.3072,2.3073,2.3069,2.3063,2.3052,2.3052,2.3051,2.3051,0,2.3247,2.3221,2.3242,2.3217,2.3212,2.3231,2.3209,2.322,2.3201,2.3212,2.3213,2.3183,2.3186,2.3157,2.3155,2.3139,2.3166,2.3154,2.3169,2.3164,2.3192,2.3188,2.3292,2.3303,2.3204,2.3205,2.3206,0,2.3301,2.3318,2.3295,2.3298,2.329,2.3296,2.3296,2.3262,2.3264,2.325,2.3261,2.3261,2.3259,2.3265,2.3242,2.3239,2.3224,2.3261,2.3223,2.323,2.322,2.3218,2.3218,2.3268,2.3269,2.327,2.3271,0,2.3397,2.3383,2.3384,2.338,2.3381,2.3376,2.3369,2.3374,2.3337,2.334,2.3342,2.334,2.3336,2.3335,2.3327,2.3316,2.3286,2.3283,2.3289,2.3296,2.3303,2.3295,2.3187,2.328,2.328,2.3279,2.3278,2.3278,2.347,2.3482,2.3466,2.3468,2.3459,2.3453,2.346,2.3441,2.3442,2.3436,2.3417,2.3421,2.3406,2.3392,2.3383,2.3385,2.3367,2.3376,2.3378,2.3379,2.3383,2.3305,2.3384,2.3384,2.3384,2.3383,2.3383,0,2.3562,2.3549,2.3551,2.3541,2.3542,2.3515,2.3504,2.3506,2.3511,2.3499,2.3497,2.3497,2.3495,2.3472,2.3466,2.3472,2.3458,2.3472,2.3469,2.3466,2.3401,2.3395,2.3483,2.3483,2.3483,2.3483,2.3483,2.3483,2.3609,2.3626,2.3609,2.362,2.3607,2.3611,2.3607,2.36,2.359,2.3592,2.359,2.3574,2.3557,2.3549,2.3545,2.3538,2.3536,2.3554,2.3542,2.3481,2.3471,2.3462,2.3456,2.3555,2.3555,2.3606,2.3606,2.3607]},{"header":{"parameterUnit":"m.s-1","parameterCategory":1,"la1":30.2991,"la2":30.254,"lo1":-89.0895,"lo2":-89.0444,"dy":0.0017,"dx":0.0017,"nx":28,"ny":28,"refTime":"2025-09-04T21:00:00:Z","depth":0,"parameterNumber":3,"parameterNumberName":"V-component_of_WINDS"},"data":[0,0,0,0,0,0,0,0,0,0,0,0,0,0,0,0,0,0,0,0,0,0,0,0,0,0,0,0,0,0,0,0,0,0,0,0,0,0,0,0,0,0,0,0,0,0,0,0,0,0,0,0,0,0,0,0,0,0,0.9745,0.9747,0,0.9846,0.9847,0.9848,0.9876,0.9876,0.9875,0.9875,0.9975,0.9978,0.9981,0,0,0,0,0,0,0,0,0,0,0,0,0,0.9573,0.9576,0.9745,0.9747,0.9748,0.9846,0.9847,0.9849,0.9876,0.9876,0.9875,0.9874,0.9974,0.9978,0.9982,0,0,0,0,0,0,0,0,0,0,0,0,0,0.9658,0.9577,0.9745,0.9774,0.9777,0.9846,0.9847,0.9849,0.9877,0.9876,0.9875,0.9874,0.9973,0.9977,0.9982,1.0029,0,0,0.9997,0.9999,0,0,0,0,0,0,0,0,0.9653,0.9664,0.9768,0.9772,0.9776,0.9848,0.9823,0.9909,0.9877,0.9839,0.9875,0.9874,0.9933,0.9941,0.9962,1.0034,1.0038,0.9997,1.0,1.0002,1.0004,0,0,0,0,0,0,0,0.9647,0.966,0.9785,0.977,0.9774,0.978,0.9791,0.984,0.9889,0.9842,0.9844,0.9856,0.9935,0.9957,0.9964,1.0039,0.9997,1.0001,1.0004,1.0006,1.0152,1.0153,0,0,0,0,0,0,0.9637,0.9655,0.9782,0.9788,0.9711,0.9784,0.9796,0.9826,0.9889,0.9898,0.9857,0.9857,0.9949,0.9959,0.9968,1.0026,1.0002,1.0007,1.0009,1.0151,1.0152,1.0153,0,0,0,0,0,0,0.9633,0.9648,0.9778,0.9722,0.9739,0.9788,0.982,0.9828,0.985,0.99,0.9909,0.987,0.9949,0.9961,1.0013,1.003,1.0009,1.0013,1.015,1.0151,1.0152,1.0142,0,0,0,0,0,0,0.9628,0.9646,0.9666,0.9723,0.9742,0.9823,0.9821,0.9831,0.9859,0.986,0.9915,0.9924,0.9949,1.0006,1.0018,1.0036,1.0017,1.0148,1.015,1.0152,1.0141,1.0143,1.0145,0,0,0,0,0,0.9622,0.9659,0.9667,0.9682,0.9768,0.9824,0.9835,0.9865,0.986,0.9879,0.9911,0.9922,1.0026,1.0011,1.0025,1.0044,1.0147,1.015,1.0152,1.014,1.0143,1.0145,0,0,0,0,0,0,0.9603,0.9667,0.9676,0.9733,0.9773,0.9828,0.9854,0.9866,0.9907,0.9907,0.9941,0.9953,1.0002,1.0029,1.0011,1.0092,1.0087,1.0092,1.0073,1.0076,1.0077,1.007,1.0021,0,0,0,0,0,0.9605,0.9646,0.97,0.9745,0.9764,0.9805,0.9831,0.985,0.9892,0.9909,0.9944,0.9984,1.0025,1.0052,1.0093,1.0145,1.0156,1.0165,1.0166,1.0168,1.0172,1.0199,1.0203,1.016,1.016,1.016,0,0,0.9611,0.9651,0.9675,0.9742,0.9775,0.9815,0.9819,0.9862,0.9892,0.9915,0.9966,0.9993,1.0039,1.0091,1.0116,1.0114,1.0186,1.017,1.0171,1.0174,1.0202,1.0206,1.0209,1.0162,1.0162,1.0161,0,0,0.9641,0.9676,0.9717,0.9749,0.9799,0.9826,0.9835,0.9889,0.9908,0.996,0.9977,1.0012,1.0083,1.0115,1.014,1.018,1.0191,1.0192,1.0201,1.0227,1.0231,1.0234,1.0247,1.0251,1.0196,1.0196,1.0196,0,0.9641,0.9705,0.9736,0.9778,0.9806,0.9828,0.9868,0.9898,0.9958,0.9976,0.9974,1.0063,1.0095,1.0154,1.0163,1.0183,1.0194,1.0186,1.0228,1.0231,1.0235,1.0247,1.0252,1.0195,1.0195,1.0195,1.0195,0,0.9702,0.9745,0.9771,0.9829,0.986,0.9901,0.9936,0.9964,0.9979,1.0006,1.0057,1.0097,1.0145,1.016,1.0176,1.022,1.0218,1.0221,1.0217,1.0238,1.025,1.0256,1.0195,1.0195,1.0195,1.0195,0,0,0.9725,0.9798,0.9807,0.9832,0.9888,0.9921,0.9962,1.001,1.0032,1.0072,1.0106,1.0164,1.0167,1.0195,1.0215,1.0238,1.0265,1.0238,1.024,1.0241,1.0314,1.0311,1.0316,1.0272,1.0273,1.0274,1.031,0,0.9762,0.9837,0.9865,0.9925,0.9964,0.9985,1.002,1.0057,1.0082,1.0117,1.0144,1.0185,1.0186,1.0203,1.0227,1.0257,1.028,1.0254,1.0303,1.0304,1.0291,1.0323,1.0321,1.0352,1.0315,1.0316,1.0317,0,0.9816,0.9856,0.9921,0.9969,0.9987,1.0018,1.0063,1.0097,1.0138,1.0155,1.0185,1.0203,1.0244,1.0237,1.0293,1.0275,1.0296,1.0313,1.0315,1.0321,1.0312,1.0329,1.0363,1.0368,1.0325,1.0324,1.0323,0,0.9825,0.9895,0.9943,0.9964,1.0022,1.0043,1.0068,1.0109,1.0135,1.0174,1.0191,1.0234,1.0257,1.0289,1.0316,1.0308,1.0369,1.0365,1.0383,1.0382,1.0395,1.0394,1.0433,1.0409,1.0409,1.0409,1.0409,0,0.9863,0.9902,0.9947,0.9977,1.0019,1.005,1.0091,1.0117,1.0152,1.0186,1.0206,1.0236,1.0271,1.0305,1.0327,1.0369,1.038,1.0393,1.0398,1.0391,1.0389,1.0406,1.0404,1.041,1.041,1.041,1.041,0,0.9881,0.9914,0.9966,1.0017,1.003,1.0059,1.0102,1.0129,1.0155,1.0196,1.0208,1.0247,1.0288,1.0318,1.0372,1.0386,1.0431,1.0437,1.0418,1.042,1.0437,1.0434,1.0487,1.0495,1.0466,1.0466,1.0467,0,0.9904,0.9934,0.9987,1.0011,1.0036,1.0074,1.0101,1.0131,1.0158,1.0205,1.0227,1.027,1.0306,1.037,1.0403,1.0443,1.0449,1.0465,1.0455,1.0447,1.0448,1.0446,1.0449,1.0466,1.0466,1.0467,1.0467,0,0.9939,0.9953,0.9992,1.0035,1.0066,1.0102,1.0137,1.0155,1.0192,1.022,1.0263,1.0291,1.0345,1.0386,1.0429,1.0453,1.0465,1.0469,1.0475,1.0469,1.0456,1.0462,1.0421,1.0468,1.0468,1.0468,1.0468,1.0468,0.996,0.9987,1.0028,1.0069,1.0099,1.0131,1.016,1.0188,1.0224,1.0271,1.0286,1.033,1.0368,1.0427,1.0451,1.0485,1.0484,1.0494,1.0496,1.0498,1.0497,1.045,1.0493,1.0493,1.0493,1.0493,1.0493,0,0.9996,1.0023,1.0061,1.011,1.0142,1.0151,1.019,1.0215,1.0254,1.0289,1.0323,1.0371,1.0411,1.0445,1.0486,1.0506,1.0512,1.0516,1.0514,1.0519,1.0495,1.0485,1.051,1.051,1.051,1.051,1.051,1.051,1.0019,1.0064,1.0083,1.0142,1.0169,1.0212,1.0234,1.0263,1.029,1.0343,1.0376,1.0399,1.0433,1.0476,1.0512,1.0521,1.0535,1.0537,1.0547,1.0523,1.0521,1.0519,1.051,1.0539,1.0539,1.0568,1.0568,1.0569]}]]